Location: Chuathbaluk
(61.5726°N, 159.2454°W)
Time: 21:56:40
(UTC+00:00)

Transit 4A - Pass Details

Date: 30 November 2020
Orbit: 864 x 981 km, 66.8° (Epoch: 19 January)

Event Time Altitude Azimuth Distance (km) Brightness Sun altitude
Rises 01:19:54 0° 304° (NW) 3,695 11.1 -0.3°
Reaches altitude 10° 01:22:29 10° 304° (NW) 2,744 10.5 -0.5°
Maximum altitude 01:28:57 88° 218° (SW) 983 8.2 -1.0°
Drops below altitude 10° 01:35:17 10° 129° (SE) 2,691 10.3 -1.5°
Sets 01:37:48 0° 129° (SE) 3,619 10.9 -1.7°
